Torna al catalogo

STARLINK-35160

AttivoComunicazioniVLEO
NORAD 65911·PAYLOAD·🇺🇸 United States

Lanciato Oct 8, 2025 da Vandenberg Space Force Base

Loading…

Prossimi Passaggi (prossime 24 ore)

TLE

AggiornatoSource: CelesTrak SupGP

Epoca: Sep 14, 2026, 22:57 UTC

1 65911C 25225B   26257.95673611 -.00010699  00000+0 -31622-3 0  2578
2 65911  53.1591   3.4525 0001240  82.0524 129.7607 15.34383799    10

Traccia STARLINK-35160 in tempo reale con AllMySat

Download on the App Store